Starlink 32100

operational
NORAD ID: 59686 Int'l Des: 2024-086 Owner: SPXS Country: US Constellation: starlink
LEOCIRCULAR

关于 Starlink 32100

正在加载描述...

实时位置

正在加载3D地球...

即将过境

高度历史

Altitude vs Time

uPlot chart will show altitude changes over time

两行轨道根数

1 59686U 24086E 25304.64953682 .00000067 00000-0 11954-4 0 9998
2 59686 43.0016 50.5343 0001378 272.5642 87.5052 15.27583384 84585
Epoch: Oct 31, 2025 • Age: 20 hours

当前状态

高度 483.2 km
速度 7.63 km/s
星下点 -2.44°S, 19.22°E
发射日期 May 8, 2024
运行时间 1.4 years
类型 internet

技术详情

分类 Payload
质量 730.00 kg
干质量 700.00 kg
总质量 730.00 kg
长度 0.30 m
直径 4.10 m
跨度 29.00 m
形状 Box + pan
制造商 SPXS
平台类型 Starlink V2M
阶段状态 In Orbit
所有者/国家 SPXS/US

大型星座

Loading constellations...